Weather History for KFLD - October, 2013

Change the Weather History Date:

Monday, October 28, 2013

  Actual Average Record
Temperature  
Mean Temperature 40 °F -  
Max Temperature 44 °F 53 °F 71 °F (1948)
Min Temperature 36 °F 36 °F 21 °F (2012)
Degree Days  
Heating Degree Days 26    
Moisture  
Dew Point 27 °F    
Average Humidity 62    
Maximum Humidity 73    
Minimum Humidity 53    
Precipitation  
Precipitation 0.00 in - - ()
Sea Level Pressure  
Sea Level Pressure 30.34 in    
Wind  
Wind Speed 14 mph (NE)    
Max Wind Speed 20 mph    
Max Gust Speed 25 mph    
Visibility 10 miles    
Events      
Averages and records for this station are not official NWS values.
T = Trace of Precipitation, MM = Missing Value Source: NWS Daily Summary

Daily Weather History Graph

Daily Weather History Graph

Search for Another Location

Airport or City:

Trip Planner

Search our weather history database for the weather conditions in past years. The results will help you decide how hot, cold, wet, or windy it might be!

Date:

Astronomy

Oct. 28, 2013 Rise Set
Actual Time 7:25 AM CDT 5:49 PM CDT
Civil Twilight 6:55 AM CDT 6:19 PM CDT
Nautical Twilight 6:21 AM CDT 6:53 PM CDT
Astronomical Twilight 5:48 AM CDT 7:26 PM CDT
Moon 1:06 AM CDT (10/28) 2:41 PM CDT (10/28)
Length of Visible Light 11h 23m
Length of Day
10h 24m
Waning Crescent, 34% of the Moon is Illuminated
Oct 28
Waning Crescent
Nov 3
New
Nov 9
First Quarter
Nov 17
Full
Nov 25
Last Quarter

Hourly Weather History & Observations

Time (CDT) Temp. Windchill Dew Point Humidity Pressure Visibility Wind Dir Wind Speed Gust Speed Precip Events Conditions
12:53 AM 43.0 °F 36.0 °F 30.0 °F 60% 30.10 in 10.0 mi NE 13.8 mph - N/A   Clear
1:53 AM 41.0 °F 33.9 °F 30.0 °F 65% 30.13 in 10.0 mi NNE 12.7 mph - N/A   Clear
2:53 AM 41.0 °F 33.5 °F 32.0 °F 70% 30.15 in 10.0 mi NE 13.8 mph - N/A   Scattered Clouds
3:42 AM 41.0 °F 33.5 °F 32.0 °F 70% 30.17 in 10.0 mi NE 13.8 mph 24.2 mph N/A   Mostly Cloudy
3:53 AM 41.0 °F 32.5 °F 32.0 °F 70% 30.19 in 10.0 mi NE 17.3 mph 25.3 mph N/A   Overcast
4:53 AM 39.9 °F 30.8 °F 30.0 °F 68% 30.24 in 10.0 mi NE 18.4 mph - N/A   Overcast
5:53 AM 39.0 °F 29.3 °F 28.9 °F 67% 30.27 in 10.0 mi NE 19.6 mph 25.3 mph N/A   Overcast
6:40 AM 37.4 °F 28.9 °F 28.4 °F 70% 30.27 in 10.0 mi NE 13.8 mph 21.9 mph N/A   Scattered Clouds
6:53 AM 37.0 °F 29.3 °F 28.9 °F 73% 30.29 in 10.0 mi NE 11.5 mph - N/A   Partly Cloudy
7:53 AM 37.9 °F 27.9 °F 27.0 °F 65% 30.33 in 10.0 mi NE 19.6 mph 23.0 mph N/A   Mostly Cloudy
8:53 AM 39.0 °F 30.3 °F 26.1 °F 60% 30.35 in 10.0 mi NE 16.1 mph 21.9 mph N/A   Overcast
9:53 AM 39.0 °F 31.0 °F 28.0 °F 65% 30.39 in 10.0 mi NNE 13.8 mph - N/A   Overcast
10:53 AM 41.0 °F 32.2 °F 26.1 °F 55% 30.41 in 10.0 mi NNE 18.4 mph - N/A   Overcast
11:53 AM 41.0 °F 32.5 °F 26.1 °F 55% 30.41 in 10.0 mi NNE 17.3 mph - N/A   Overcast
12:53 PM 43.0 °F 35.4 °F 27.0 °F 53% 30.40 in 10.0 mi NE 16.1 mph 21.9 mph N/A   Overcast
1:53 PM 43.0 °F 36.4 °F 28.0 °F 56% 30.39 in 10.0 mi NE 12.7 mph - N/A   Overcast
2:53 PM 43.0 °F 37.2 °F 27.0 °F 53% 30.39 in 10.0 mi ENE 10.4 mph - N/A   Overcast
3:53 PM 43.0 °F 36.8 °F 27.0 °F 53% 30.40 in 10.0 mi NE 11.5 mph - N/A   Overcast
4:53 PM 42.1 °F 37.1 °F 27.0 °F 55% 30.41 in 10.0 mi ENE 8.1 mph - N/A   Overcast
5:53 PM 39.9 °F 32.5 °F 27.0 °F 60% 30.41 in 10.0 mi ENE 12.7 mph 16.1 mph N/A   Overcast
6:53 PM 39.0 °F 32.8 °F 26.1 °F 60% 30.43 in 10.0 mi ENE 9.2 mph - N/A   Overcast
7:53 PM 37.9 °F 30.0 °F 25.0 °F 60% 30.45 in 10.0 mi ENE 12.7 mph - N/A   Overcast
8:53 PM 37.0 °F 29.3 °F 24.1 °F 59% 30.46 in 10.0 mi ENE 11.5 mph - N/A   Overcast
9:53 PM 36.0 °F 30.3 °F 24.1 °F 62% 30.46 in 10.0 mi East 6.9 mph - N/A   Overcast
10:53 PM 36.0 °F 30.3 °F 23.0 °F 59% 30.45 in 10.0 mi East 6.9 mph - N/A   Overcast
11:53 PM 36.0 °F 31.1 °F 23.0 °F 59% 30.45 in 10.0 mi NE 5.8 mph - N/A   Overcast